G3VHU Weather Reports


time (UTC)temp
C
wind
direction
speed
KPH
gust
KPH
rain 1hr
cm
rain 24hr
cm
rain mn
cm
humidity
%
barometer
mb
20260507160636 10 301 11.3 24.1 0.00 0.00 0.00 81 1016.7
20260507160129 10 37 12.9 25.7 0.00 0.00 0.00 80 1016.6
20260507155623 10 63 12.9 27.4 0.00 0.00 0.00 80 1016.7
20260507155123 10 131 12.9 27.4 0.00 0.00 0.00 80 1016.6
20260507154623 10 133 12.9 27.4 0.00 0.00 0.00 79 1016.7
20260507154124 10 138 12.9 27.4 0.00 0.00 0.00 80 1016.7
20260507153624 10 105 12.9 25.7 0.00 0.00 0.00 80 1016.8
20260507153123 10 96 14.5 25.7 0.00 0.00 0.00 80 1016.8
20260507152623 10 72 12.9 25.7 0.00 0.00 0.00 80 1016.8
20260507152123 10 97 11.3 25.7 0.00 0.00 0.00 80 1016.9
20260507151623 10 89 12.9 25.7 0.00 0.00 0.00 80 1016.8
20260507151123 10 43 11.3 25.7 0.00 0.00 0.00 80 1016.8
20260507150623 10 72 11.3 24.1 0.00 0.00 0.00 80 1016.9
20260507150122 10 143 12.9 24.1 0.00 0.00 0.00 80 1016.9
20260507145622 10 336 12.9 27.4 0.00 0.00 0.00 80 1016.9
20260507145116 10 323 14.5 27.4 0.00 0.00 0.00 80 1017.0
20260507144615 10 117 12.9 22.5 0.00 0.00 0.00 78 1017.0
20260507144115 10 94 12.9 25.7 0.00 0.00 0.00 79 1017.0
20260507143615 10 145 12.9 29.0 0.00 0.00 0.00 79 1017.1
20260507143115 10 80 12.9 29.0 0.00 0.00 0.00 80 1017.0
20260507142615 10 17 11.3 24.1 0.00 0.00 0.00 80 1017.0
20260507142115 10 207 11.3 24.1 0.00 0.00 0.00 79 1017.0
20260507141615 10 131 11.3 24.1 0.00 0.00 0.00 79 1017.1
20260507141115 10 11 12.9 29.0 0.00 0.00 0.00 78 1017.1
20260507140615 10 122 14.5 29.0 0.00 0.00 0.00 79 1017.1
20260507140115 10 113 12.9 25.7 0.00 0.00 0.00 81 1017.1
20260507135614 10 59 14.5 29.0 0.00 0.00 0.00 80 1017.1
20260507135115 10 171 14.5 29.0 0.00 0.00 0.00 81 1017.1
20260507134616 10 117 12.9 22.5 0.00 0.00 0.00 80 1017.0
20260507134114 10 85 12.9 22.5 0.00 0.00 0.00 80 1017.1
20260507133611 10 79 12.9 24.1 0.00 0.00 0.00 80 1017.1
20260507133110 10 156 12.9 24.1 0.00 0.00 0.00 79 1017.1
20260507132612 10 328 14.5 24.1 0.00 0.00 0.00 80 1017.2
20260507132112 10 33 14.5 25.7 0.00 0.00 0.00 80 1017.1
20260507131611 10 165 16.1 27.4 0.00 0.00 0.00 81 1017.2
20260507131122 10 159 16.1 29.0 0.00 0.00 0.00 80 1017.1
20260507130610 10 46 14.5 29.0 0.00 0.00 0.00 79 1017.2
20260507130113 10 110 12.9 24.1 0.00 0.00 0.00 79 1017.1
20260507125611 10 139 14.5 24.1 0.00 0.00 0.00 79 1017.2
20260507125112 10 120 14.5 24.1 0.00 0.00 0.00 79 1017.2
20260507124612 10 326 16.1 27.4 0.00 0.00 0.00 79 1017.2
20260507124122 10 96 16.1 27.4 0.00 0.00 0.00 79 1017.2
20260507123611 10 85 12.9 25.7 0.00 0.00 0.00 78 1017.3
20260507123111 10 354 12.9 32.2 0.00 0.00 0.00 79 1017.3
20260507122611 10 118 14.5 32.2 0.00 0.00 0.00 79 1017.4
20260507122109 10 153 14.5 24.1 0.00 0.00 0.00 80 1017.3
20260507121600 10 110 12.9 24.1 0.00 0.00 0.00 78 1017.4
20260507121101 10 89 9.7 20.9 0.00 0.00 0.00 77 1017.4
20260507120601 10 305 11.3 20.9 0.00 0.00 0.00 78 1017.4
20260507115601 10 77 12.9 24.1 0.00 0.00 0.00 78 1017.4
20260507115102 10 54 12.9 24.1 0.00 0.00 0.00 78 1017.4
20260507114600 10 69 11.3 24.1 0.00 0.00 0.00 77 1017.4
20260507114101 10 352 11.3 22.5 0.00 0.00 0.00 77 1017.5
20260507113601 9 21 11.3 24.1 0.00 0.00 0.00 78 1017.5
20260507113101 10 249 11.3 24.1 0.00 0.00 0.00 77 1017.6
20260507112600 10 163 11.3 24.1 0.00 0.00 0.00 78 1017.6
20260507112101 10 83 9.7 24.1 0.00 0.00 0.00 76 1017.6
20260507111600 10 41 9.7 19.3 0.00 0.00 0.00 77 1017.7
20260507111100 10 131 11.3 19.3 0.00 0.00 0.00 76 1017.7
20260507110555 10 43 9.7 22.5 0.00 0.00 0.00 76 1017.8
20260507110051 10 130 8.0 22.5 0.00 0.00 0.00 76 1017.9
20260507105550 10 81 8.0 17.7 0.00 0.00 0.00 76 1017.7
20260507105052 9 57 9.7 24.1 0.00 0.00 0.00 77 1017.8
20260507104551 9 127 11.3 24.1 0.00 0.00 0.00 76 1017.8
20260507104050 9 112 9.7 19.3 0.00 0.00 0.00 76 1017.7
20260507103551 9 40 9.7 20.9 0.00 0.00 0.00 77 1017.8
20260507103051 9 109 9.7 20.9 0.00 0.00 0.00 78 1017.8
20260507102550 9 173 9.7 20.9 0.00 0.00 0.00 76 1017.9
20260507102051 9 186 11.3 20.9 0.00 0.00 0.00 77 1017.9
20260507101550 9 57 9.7 20.9 0.00 0.00 0.00 77 1017.7
20260507101051 9 11 9.7 19.3 0.00 0.00 0.00 76 1017.7
20260507100550 9 122 9.7 22.5 0.00 0.00 0.00 76 1017.7
20260507100051 9 93 9.7 22.5 0.00 0.00 0.00 77 1017.7
20260507095550 9 101 9.7 17.7 0.00 0.00 0.00 76 1017.8
20260507095051 9 334 12.9 19.3 0.00 0.00 0.00 77 1017.8
20260507094550 9 77 11.3 20.9 0.00 0.00 0.00 77 1017.9
20260507094051 9 134 9.7 20.9 0.00 0.00 0.00 77 1017.8
20260507093550 9 70 8.0 17.7 0.00 0.00 0.00 76 1017.8
20260507093051 9 16 8.0 17.7 0.00 0.00 0.00 76 1017.8
20260507092551 9 168 9.7 17.7 0.00 0.00 0.00 76 1017.8
20260507092051 9 195 8.0 17.7 0.00 0.00 0.00 76 1017.7
20260507091551 9 169 8.0 19.3 0.00 0.00 0.00 75 1017.9
20260507091050 9 160 6.4 19.3 0.00 0.00 0.00 75 1017.8
20260507090551 9 18 6.4 14.5 0.00 0.00 0.00 76 1017.8
20260507090050 9 109 8.0 14.5 0.00 0.00 0.00 75 1017.8
20260507085550 9 171 6.4 14.5 0.00 0.00 0.00 75 1017.8
20260507085050 9 70 6.4 14.5 0.00 0.00 0.00 75 1017.8
20260507084551 9 113 6.4 12.9 0.00 0.00 0.00 75 1017.8
20260507084051 9 39 6.4 12.9 0.00 0.00 0.00 75 1017.8
20260507083550 9 115 8.0 17.7 0.00 0.00 0.00 75 1017.8
20260507083050 9 123 8.0 17.7 0.00 0.00 0.00 75 1017.8
20260507082551 9 170 4.8 12.9 0.00 0.00 0.00 75 1017.8
20260507082050 9 94 4.8 12.9 0.00 0.00 0.00 74 1017.7
20260507081550 9 106 4.8 12.9 0.00 0.00 0.00 75 1017.8
20260507081050 9 107 4.8 12.9 0.00 0.00 0.00 75 1017.8
20260507080551 9 78 6.4 12.9 0.00 0.00 0.00 74 1017.7
20260507080051 9 335 6.4 12.9 0.00 0.00 0.00 74 1017.7
20260507075548 8 34 8.0 12.9 0.00 0.00 0.00 75 1017.7
20260507075048 8 122 6.4 17.7 0.00 0.00 0.00 75 1017.7
20260507074543 8 136 6.4 17.7 0.00 0.00 0.00 75 1017.7
20260507074042 9 205 4.8 11.3 0.00 0.00 0.00 75 1017.7
20260507073542 9 13 4.8 11.3 0.00 0.00 0.00 75 1017.6
20260507073043 8 174 4.8 12.9 0.00 0.00 0.00 75 1017.6
20260507072542 8 57 6.4 14.5 0.00 0.00 0.00 75 1017.6
20260507072042 8 150 6.4 14.5 0.00 0.00 0.00 75 1017.5
20260507071542 8 21 6.4 12.9 0.00 0.00 0.00 74 1017.5
20260507071042 8 124 6.4 12.9 0.00 0.00 0.00 75 1017.5
20260507070543 9 148 4.8 12.9 0.00 0.00 0.00 76 1017.5
20260507070042 8 49 4.8 12.9 0.00 0.00 0.00 75 1017.4
20260507065541 8 126 6.4 12.9 0.00 0.00 0.00 75 1017.5
20260507065040 8 98 6.4 12.9 0.00 0.00 0.00 75 1017.4
20260507064540 8 75 6.4 12.9 0.00 0.00 0.00 74 1017.4
20260507064038 8 136 6.4 12.9 0.00 0.00 0.00 75 1017.3
20260507063536 8 2 6.4 11.3 0.00 0.00 0.00 75 1017.3
20260507063030 8 92 6.4 11.3 0.00 0.00 0.00 75 1017.3
20260507062528 8 110 3.2 11.3 0.00 0.00 0.00 75 1017.2
20260507062029 8 103 1.6 9.7 0.00 0.00 0.00 75 1017.2
20260507061529 8 177 0.0 1.6 0.00 0.00 0.00 74 1017.3
20260507061029 8 143 0.0 1.6 0.00 0.00 0.00 74 1017.2
20260507060526 8 144 0.0 3.2 0.00 0.00 0.00 78 1017.3
20260507060026 7 156 0.0 3.2 0.00 0.00 0.00 81 1017.1
20260507055526 6 44 0.0 0.0 0.00 0.00 0.00 78 1017.1
20260507055024 6 45 0.0 1.6 0.00 0.00 0.00 79 1017.1
20260507054524 5 339 0.0 1.6 0.00 0.00 0.00 82 1017.1
20260507054024 4 339 0.0 3.2 0.00 0.00 0.00 82 1017.1
20260507053522 4 351 0.0 3.2 0.00 0.00 0.00 83 1017.1
20260507053022 3 347 1.6 3.2 0.00 0.00 0.00 82 1017.1
20260507052522 3 312 1.6 3.2 0.00 0.00 0.00 83 1017.1
20260507052022 3 9 1.6 3.2 0.00 0.00 0.00 83 1017.2
20260507051522 3 356 1.6 3.2 0.00 0.00 0.00 84 1017.1
20260507051022 3 344 1.6 4.8 0.00 0.00 0.00 84 1017.1
20260507050520 3 338 1.6 4.8 0.00 0.00 0.00 84 1017.1
20260507050018 2 343 1.6 4.8 0.00 0.00 0.00 85 1017.1
20260507045518 2 327 1.6 4.8 0.00 0.00 0.00 85 1017.0
20260507045018 2 330 1.6 3.2 0.00 0.00 0.00 85 1017.0
20260507044517 2 326 1.6 3.2 0.00 0.00 0.00 86 1017.0
20260507044018 2 342 1.6 3.2 0.00 0.00 0.00 86 1017.1
20260507043518 2 344 1.6 3.2 0.00 0.00 0.00 86 1017.1
20260507043017 2 319 1.6 3.2 0.00 0.00 0.00 86 1017.1
20260507042517 2 326 1.6 3.2 0.00 0.00 0.00 86 1017.0
20260507042019 2 328 1.6 3.2 0.00 0.00 0.00 86 1017.1
20260507041517 2 326 1.6 4.8 0.00 0.00 0.00 86 1017.1
20260507041019 2 345 3.2 6.4 0.00 0.00 0.00 86 1017.1
20260507040518 2 0 3.2 6.4 0.00 0.00 0.00 86 1017.1
20260507040017 2 340 4.8 8.0 0.00 0.00 0.00 86 1017.1
20260507035511 2 339 4.8 8.0 0.00 0.00 0.00 87 1017.2
20260507035006 2 348 4.8 8.0 0.00 0.00 0.00 86 1017.2
20260507034506 2 341 4.8 8.0 0.00 0.00 0.00 86 1017.3
20260507034006 2 340 4.8 8.0 0.00 0.00 0.00 86 1017.3
20260507033505 2 358 4.8 8.0 0.00 0.00 0.00 86 1017.4
20260507033006 2 316 4.8 8.0 0.00 0.00 0.00 86 1017.3
20260507032506 2 316 4.8 8.0 0.00 0.00 0.00 86 1017.2
20260507032007 2 329 4.8 8.0 0.00 0.00 0.00 86 1017.3
20260507031505 2 340 4.8 8.0 0.00 0.00 0.00 86 1017.2
20260507031006 2 350 4.8 8.0 0.00 0.00 0.00 86 1017.2
20260507030506 2 4 4.8 8.0 0.00 0.00 0.00 86 1017.3
20260507030006 2 354 4.8 9.7 0.00 0.00 0.00 86 1017.3
20260507025506 2 352 4.8 9.7 0.00 0.00 0.00 86 1017.3
20260507025006 2 41 4.8 8.0 0.00 0.00 0.00 85 1017.2
20260507024505 2 27 3.2 8.0 0.00 0.00 0.00 85 1017.2
20260507024001 2 336 4.8 8.0 0.00 0.00 0.00 86 1017.2
20260507023501 2 320 4.8 8.0 0.00 0.00 0.00 86 1017.2
20260507023001 2 353 4.8 9.7 0.00 0.00 0.00 86 1017.2
20260507022501 2 328 4.8 9.7 0.00 0.00 0.00 85 1017.2
20260507022002 2 310 4.8 9.7 0.00 0.00 0.00 84 1017.1
20260507021504 3 312 3.2 8.0 0.00 0.00 0.00 83 1017.1
20260507021002 3 354 3.2 6.4 0.00 0.00 0.00 84 1017.1
20260507020501 3 358 3.2 6.4 0.00 0.00 0.00 84 1017.1
20260507020000 3 3 3.2 6.4 0.00 0.00 0.00 85 1017.1
20260507015459 3 11 3.2 6.4 0.00 0.00 0.00 85 1017.1
20260507015000 2 326 4.8 8.0 0.00 0.00 0.00 85 1017.2
20260507014500 2 336 4.8 8.0 0.00 0.00 0.00 85 1017.2
20260507014000 3 14 4.8 8.0 0.00 0.00 0.00 85 1017.2
20260507013500 3 1 4.8 8.0 0.00 0.00 0.00 85 1017.3
20260507012959 3 333 4.8 8.0 0.00 0.00 0.00 84 1017.2
20260507012500 3 323 3.2 8.0 0.00 0.00 0.00 84 1017.2
20260507012001 3 17 3.2 6.4 0.00 0.00 0.00 84 1017.2
20260507011500 3 321 3.2 6.4 0.00 0.00 0.00 83 1017.2
20260507011000 3 316 1.6 4.8 0.00 0.00 0.00 83 1017.2
20260507010459 3 333 3.2 6.4 0.00 0.00 0.00 83 1017.2
20260507010000 3 4 3.2 6.4 0.00 0.00 0.00 83 1017.2
20260507005500 3 358 3.2 6.4 0.00 0.00 0.00 82 1017.2
20260507004959 3 356 1.6 6.4 0.00 0.00 0.00 82 1017.2
20260507004459 4 352 0.0 4.8 0.00 0.00 0.00 82 1017.1
20260507004000 4 3 1.6 3.2 0.00 0.00 0.00 82 1017.1
20260507003500 3 306 1.6 6.4 0.00 0.00 0.00 82 1017.2
20260507003000 4 303 3.2 9.7 0.00 0.00 0.00 81 1017.1
20260507002500 4 4 3.2 9.7 0.00 0.00 0.00 81 1017.2
20260507001959 4 5 3.2 6.4 0.00 0.00 0.00 80 1017.2
20260507001500 5 337 1.6 4.8 0.00 0.00 0.00 79 1017.1
20260507001000 5 354 0.0 3.2 0.00 0.00 0.00 78 1017.3
20260507000459 6 316 0.0 3.2 0.00 0.00 0.00 77 1017.3
20260507000000 6 72 1.6 6.4 0.00 0.00 0.00 76 1017.3
20260506235457 6 91 1.6 6.4 0.00 0.00 0.00 76 1017.3
20260506234957 6 291 1.6 6.4 0.00 0.00 0.00 75 1017.3
20260506234457 7 34 3.2 8.0 0.00 0.00 0.00 73 1017.3
20260506233957 7 143 3.2 8.0 0.00 0.00 0.00 74 1017.4
20260506233457 7 108 4.8 9.7 0.00 0.00 0.00 73 1017.4
20260506232956 7 94 6.4 9.7 0.00 0.00 0.00 73 1017.4
20260506232451 7 68 6.4 11.3 0.00 0.00 0.00 74 1017.4
20260506231947 7 83 6.4 12.9 0.00 0.00 0.00 73 1017.4
20260506231448 7 84 6.4 12.9 0.00 0.00 0.00 74 1017.3
20260506230948 7 94 6.4 12.9 0.00 0.00 0.00 73 1017.4
20260506230457 7 105 8.0 12.9 0.00 0.00 0.00 74 1017.2
20260506225946 7 57 8.0 14.5 0.00 0.00 0.00 74 1017.3
20260506225447 7 129 8.0 14.5 0.00 0.00 0.00 73 1017.2
20260506224947 7 91 6.4 12.9 0.00 0.00 0.00 73 1017.3
20260506224447 7 82 9.7 14.5 0.00 0.00 0.00 73 1017.3
20260506223946 7 81 9.7 14.5 0.00 0.00 0.00 73 1017.3
20260506223446 7 100 9.7 14.5 0.00 0.00 0.00 74 1017.4
20260506222940 7 86 9.7 16.1 0.00 0.00 0.00 73 1017.3
20260506222440 7 44 9.7 16.1 0.00 0.00 0.00 74 1017.3
20260506221940 7 110 9.7 16.1 0.00 0.00 0.00 74 1017.2
20260506221441 7 111 9.7 14.5 0.00 0.00 0.00 73 1017.3
20260506220940 7 72 8.0 14.5 0.00 0.00 0.00 73 1017.2
20260506220441 7 102 8.0 14.5 0.00 0.00 0.00 74 1017.2
20260506215940 7 112 8.0 16.1 0.00 0.00 0.00 73 1017.2
20260506215441 7 74 8.0 16.1 0.00 0.00 0.00 73 1017.3
20260506214941 7 77 6.4 14.5 0.00 0.00 0.00 73 1017.3
20260506214438 7 94 6.4 14.5 0.00 0.00 0.00 74 1017.4
20260506213939 7 6 8.0 14.5 0.00 0.00 0.00 74 1017.3
20260506213438 7 67 8.0 14.5 0.00 0.00 0.00 75 1017.2
20260506212936 7 82 8.0 14.5 0.00 0.00 0.00 74 1017.1
20260506212437 7 86 6.4 14.5 0.00 0.00 0.00 74 1017.2
20260506211936 7 61 8.0 14.5 0.00 0.00 0.00 74 1017.2
20260506211436 7 96 9.7 14.5 0.00 0.00 0.00 74 1017.2
20260506210936 7 96 9.7 14.5 0.00 0.00 0.00 73 1017.2
20260506210434 7 53 9.7 16.1 0.00 0.00 0.00 73 1017.2
20260506205934 7 89 9.7 16.1 0.00 0.00 0.00 73 1017.2
20260506205435 7 70 8.0 16.1 0.00 0.00 0.00 74 1017.2
20260506204934 7 77 6.4 16.1 0.00 0.00 0.00 75 1017.2
20260506204434 7 63 6.4 16.1 0.00 0.00 0.00 74 1017.2
20260506203934 7 68 4.8 12.9 0.00 0.00 0.00 73 1017.2
20260506203434 7 37 3.2 11.3 0.00 0.00 0.00 74 1017.4
20260506202927 7 42 3.2 11.3 0.00 0.00 0.00 73 1017.4
20260506202421 7 77 4.8 12.9 0.00 0.00 0.00 73 1017.3
20260506201917 7 84 4.8 12.9 0.00 0.00 0.00 74 1017.3
20260506201418 7 88 4.8 11.3 0.00 0.00 0.00 74 1017.2
20260506200918 7 26 4.8 11.3 0.00 0.00 0.00 73 1017.3
20260506200416 7 30 4.8 11.3 0.00 0.00 0.00 73 1017.2
20260506195916 7 56 6.4 12.9 0.00 0.00 0.00 73 1017.2
20260506195416 7 56 6.4 14.5 0.00 0.00 0.00 73 1017.2
20260506194916 7 73 6.4 14.5 0.00 0.00 0.00 73 1017.2
20260506194416 7 99 4.8 14.5 0.00 0.00 0.00 73 1017.1
20260506193915 7 50 4.8 14.5 0.00 0.00 0.00 73 1017.1
20260506193416 7 82 4.8 14.5 0.00 0.00 0.00 73 1017.0
20260506192916 7 42 4.8 12.9 0.00 0.00 0.00 72 1016.9
20260506192416 8 16 6.4 14.5 0.00 0.00 0.00 73 1016.9
20260506191916 8 67 6.4 14.5 0.00 0.00 0.00 74 1017.0
20260506191417 8 27 6.4 16.1 0.00 0.00 0.00 73 1017.0
20260506190410 8 72 3.2 12.9 0.00 0.00 0.00 73 1017.0
20260506185910 8 349 3.2 12.9 0.00 0.00 0.00 72 1016.9
20260506185410 8 89 4.8 12.9 0.00 0.00 0.00 72 1016.9
20260506184910 8 77 4.8 12.9 0.00 0.00 0.00 72 1016.9
20260506184410 8 13 4.8 12.9 0.00 0.00 0.00 72 1016.8
20260506183910 8 250 4.8 12.9 0.00 0.00 0.00 71 1016.8
20260506183410 8 49 4.8 12.9 0.00 0.00 0.00 72 1016.8
20260506182910 8 3 4.8 12.9 0.00 0.00 0.00 71 1016.9
20260506182410 8 1 4.8 12.9 0.00 0.00 0.00 72 1016.9
20260506181909 8 55 3.2 9.7 0.00 0.00 0.00 70 1016.9
20260506181410 8 86 3.2 9.7 0.00 0.00 0.00 70 1016.9
20260506180910 8 118 4.8 12.9 0.00 0.00 0.00 70 1016.9
20260506180409 8 254 4.8 12.9 0.00 0.00 0.00 71 1016.9
20260506175910 8 24 3.2 11.3 0.00 0.00 0.00 69 1016.9
20260506175409 9 231 3.2 9.7 0.00 0.00 0.00 68 1016.9
20260506174904 9 133 3.2 14.5 0.00 0.00 0.00 71 1016.8
20260506174403 9 61 4.8 16.1 0.00 0.00 0.00 70 1016.7
20260506173904 9 12 4.8 16.1 0.00 0.00 0.00 69 1016.7
20260506173404 9 6 4.8 11.3 0.00 0.00 0.00 69 1016.7
20260506172904 9 22 4.8 12.9 0.00 0.00 0.00 70 1016.7
20260506172404 9 80 3.2 12.9 0.00 0.00 0.00 68 1016.8
20260506171902 9 245 3.2 11.3 0.00 0.00 0.00 67 1016.8
20260506171402 9 274 4.8 11.3 0.00 0.00 0.00 66 1016.8
20260506170902 8 231 4.8 11.3 0.00 0.00 0.00 68 1016.8
20260506170402 8 30 3.2 9.7 0.00 0.00 0.00 66 1016.8
20260506165901 8 281 3.2 11.3 0.00 0.00 0.00 67 1016.8
20260506165402 9 78 3.2 11.3 0.00 0.00 0.00 67 1016.8
20260506164901 9 243 3.2 11.3 0.00 0.00 0.00 69 1016.8
20260506164401 9 27 3.2 11.3 0.00 0.00 0.00 69 1016.8
20260506163901 9 68 3.2 11.3 0.00 0.00 0.00 68 1016.7
20260506163356 9 179 3.2 11.3 0.00 0.00 0.00 69 1016.7
20260506162855 9 25 4.8 14.5 0.00 0.00 0.00 68 1016.7
20260506162356 9 101 4.8 14.5 0.00 0.00 0.00 70 1016.7
20260506161856 9 258 4.8 11.3 0.00 0.00 0.00 70 1016.7
20260506161353 9 70 4.8 14.5 0.00 0.00 0.00 71 1016.7